SCP
0 0 0 0 0 0 0 0 0 0 0 0 0 0 0 0 0 0 0 0 0 0 0 0 0 0 0 0 0 0 0 0 0 0 0 0 0 0 0 0 0 0 0
0 0 0 0 0 0 0 0 0 0 0 0 0 0 0 0 0 0 0 0 0 0 0 0 0 0 0 0 0 0 0 0 0 0 0 0 0 0 0 0 0 0 0
0 0 0 0 0 0 0 0 0 0 0 0 0 0 0 0 0 0 0 0 0 0 0 0 0 0 0 0 0 0 0 0 0 0 0 0 0 0 0 0 0 0 0
0 0 0 0 0 0 0 0 0 0 0 0 0 0 0 0 0 0 0 0 0 0 0 0 0 -0 0 0 0 0 0 0 0 0 0 0 0 0 0 0 0 0 0
0 0 0 0 0 0 0 0 0 0 0 0 0 0 0 0 0 0 0 0 0 0 0 0 -0 -0 0 0 0 0 0 0 0 0 0 0 0 0 0 0 0 0 0
0 0 0 0 0 0 0 0 0 0 0 0 0 0 0 0 0 0 0 0 0 0 0 0 -0 -0 0 -0 0 0 0 0 0 0 0 -0 -0 -0 0 0 0 0 0
0 0 0 0 0 0 0 0 0 0 0 0 0 0 0 0 0 0 0 0 0 0 0 -0 0 0 0 -0 0 0 0 0 -0 0 0 -0 0 -0 -0 -0 0 0 0
0 0 0 0 0 0 0 0 0 0 0 0 0 0 0 0 0 0 0 0 0 0 0 0 0 0 0 0 0 0 0 0 -0 -0 -0 0 0 -0 0 0 -0 0 0
0 0 0 0 0 0 0 0 0 0 0 0 0 0 0 0 0 0 0 0 0 0 0 0 0 0 -0 -0 0 0 0 0 0 0 -0 0 0 0 0 0 0 0 0
0 0 0 0 0 0 0 0 0 0 0 0 0 0 0 0 0 0 0 0 0 0 0 0 0 0 0 0 -0 -0 -0 0 0 0 -0 0 0 0 0 0 0 0 0
0 0 0 0 0 0 0 0 0 0 0 0 0 0 0 0 0 0 0 0 0 0 0 0 0 0 -0 -0 -0 0 -0 -0 0 0 0 0 0 0 0 0 0 0 0
0 0 0 0 0 0 0 0 0 0 0 0 0 0 0 0 0 0 0 0 0 0 0 0 0 0 0 -0 0 0 -0 -0 0 0 0 0 0 0 0 0 0 0 0
0 0 0 0 0 0 0 0 0 0 0 0 0 0 0 0 0 0 0 0 0 0 0 0 0 -0 -0 -0 0 0 0 0 0 0 0 0 0 0 0 0 0 0 0
0 0 0 0 0 0 0 0 0 0 0 0 0 0 0 0 0 0 0 0 0 0 0 0 0 -0 0 0 0 0 0 0 0 0 0 0 0 0 0 0 0 0 0
0 0 0 0 0 0 0 0 0 0 0 0 0 0 0 0 0 0 0 -0 0 0 0 0 0 0 0 0 0 0 0 0 0 0 0 0 0 0 0 0 0 0 0
0 0 0 0 0 0 0 0 0 0 0 0 0 0 0 0 0 0 0 0 -0 -0 -0 0 0 0 0 0 0 0 0 0 0 0 0 0 0 0 0 0 0 0 0
0 0 0 0 0 0 0 0 -0 0 0 0 0 0 0 0 0 0 0 0 -0 0 0 0 0 0 0 0 0 -0 0 0 0 0 0 0 0 0 0 0 0 0 -0
0 0 0 0 0 0 0 0 0 -0 0 0 0 0 0 0 0 0 0 -0 -0 -0 -0 -0 0 0 0 0 0 0 0 0 0 0 0 0 0 0 0 0 0 0 0
0 0 0 0 0 0 0 0 0 0 0 0 0 -0 0 0 0 0 -0 -0 0 0 -0 -0 0 0 0 0 0 0 0 0 0 0 0 0 -0 0 -0 -0 -0 0 0
0 0 0 0 0 0 -0 0 0 0 0 0 0 0 0 0 0 0 0 0 -0 -0 -0 -0 0 0 0 0 0 0 -0 0 0 0 -0 -0 -0 -0 -0 -0 -0 0 0
0 0 0 0 0 0 0 0 0 -0 -0 0 0 0 0 0 0 0 0 0 0 -0 0 0 0 0 0 0 0 0 -0 -0 -0 -0 0 0 0 -0 -0 -0 -0 0 -0
0 0 0 0 0 0 0 0 0 0 0 0 0 0 0 0 0 0 0 0 0 -0 0 0 0 0 0 0 -0 -0 0 -0 -0 0 -0 0 0 -0 -0 -0 0 -0 0
0 0 0 0 0 0 0 0 0 0 0 0 0 0 0 0 0 0 0 0 0 0 0 0 0 0 0 -0 -0 -0 -0 0 0 0 0 0 0 0 0 0 -0 0 0
0 0 0 0 0 0 0 0 0 0 0 0 0 0 0 0 0 0 0 0 0 0 0 0 0 0 0 0 0 0 0 -0 0 0 0 0 0 0 -0 0 0 0 0
0 0 0 0 0 0 0 0 0 0 0 0 -0 -0 0 0 0 0 0 0 -0 -0 0 0 0 0 0 0 0 -0 0 0 0 0 0 0 0 0 0 0 0 0 0
0 0 0 0 0 0 0 0 0 0 0 0 -0 -0 0 0 0 0 0 0 0 -0 0 0 0 0 0 0 0 0 0 0 0 0 0 0 0 0 0 0 0 0 0
Wind_Speed_500mb
39 42 31 21 14 12 14 27 31 39 38 45 24 25 27 27 21 17 23 22 25 27 31 29 33 37 38 37 33 29 27 26 30 35 35 36 39 45 48 51 55 54 56
33 42 32 25 16 16 20 30 36 34 35 36 27 30 31 27 24 20 22 22 22 25 29 35 37 38 40 40 31 28 25 23 17 22 27 22 20 22 33 37 46 47 51
34 37 32 28 23 18 26 34 31 29 36 30 23 27 25 24 23 20 20 20 25 26 29 35 38 38 39 42 31 23 22 21 13 14 16 11 8 11 11 16 24 35 42
32 37 29 32 28 21 28 30 27 27 32 26 22 27 27 31 27 25 27 25 25 29 30 33 35 36 32 38 32 23 19 22 21 20 20 24 29 17 12 7 11 23 35
39 39 33 32 29 28 26 27 24 29 26 22 19 23 26 31 32 28 26 21 23 29 25 28 28 26 30 32 28 28 21 23 24 22 21 21 23 31 38 34 20 13 27
37 32 30 28 31 29 27 26 23 26 20 17 20 26 31 36 37 30 22 22 24 27 21 22 20 20 25 29 30 27 25 23 16 16 19 24 25 19 27 34 26 10 19
26 30 32 38 40 31 26 24 26 24 18 16 20 26 31 34 32 26 27 24 25 26 25 17 17 19 19 25 27 28 25 22 17 16 19 20 20 23 18 23 23 16 25
27 28 36 35 34 29 24 23 28 28 22 15 18 27 34 32 26 21 25 24 27 28 13 16 15 15 19 22 23 27 22 25 21 20 19 9 12 18 21 10 24 23 35
32 40 34 35 36 27 24 23 25 28 21 16 22 25 27 28 18 19 23 23 28 21 11 13 11 16 20 18 18 23 27 16 27 26 20 15 14 9 22 34 25 35 31
35 36 35 38 26 29 23 24 24 22 16 17 19 24 24 15 16 21 18 22 16 9 11 7 10 15 20 16 19 18 23 25 23 45 29 17 18 21 24 21 10 39 40
34 40 38 34 31 29 30 27 22 24 19 17 19 19 18 10 14 17 19 25 25 23 14 11 10 13 20 18 23 12 16 18 22 26 33 33 29 28 26 19 22 29 29
32 31 34 34 37 36 34 27 22 25 18 18 20 14 10 10 13 16 13 13 23 21 26 9 11 10 10 14 18 15 12 8 9 17 20 28 30 32 31 32 34 33 29
10 23 34 37 38 40 39 33 23 22 21 22 18 15 11 19 16 17 16 13 18 21 18 15 13 11 4 7 12 16 22 13 13 14 17 18 14 19 22 22 25 26 27
27 21 30 39 38 44 45 36 26 21 24 28 19 20 15 17 16 19 20 17 17 13 14 20 13 9 9 6 12 13 22 25 24 25 22 19 18 16 16 17 20 20 19
25 27 25 37 39 47 40 40 32 26 26 32 28 21 18 22 20 19 24 17 15 12 8 15 17 6 4 1 4 5 10 17 17 19 20 22 24 23 16 13 13 11 11
45 43 47 44 41 38 39 44 36 28 29 33 33 24 14 15 13 18 20 20 18 14 12 9 10 10 1 5 6 2 5 7 6 9 16 14 13 13 13 13 11 10 9
47 47 47 41 47 37 41 41 48 34 31 29 35 31 20 23 19 17 22 15 19 16 12 8 7 9 6 2 3 4 3 4 6 3 7 7 10 10 9 4 6 4 4
49 48 49 49 46 43 41 48 37 49 43 33 34 29 27 23 17 15 19 17 19 15 12 14 8 8 7 7 7 6 4 6 5 5 7 7 11 13 13 7 3 4 4
40 42 44 47 47 41 41 41 41 39 44 37 36 31 28 27 23 22 18 19 18 18 13 15 18 19 18 15 11 14 12 6 5 12 12 12 9 15 14 6 8 10 11
38 43 47 51 54 50 46 39 37 42 34 34 29 31 30 33 31 27 23 22 23 16 17 14 14 19 22 22 20 18 19 19 14 8 12 8 9 9 14 13 10 8 12
38 41 45 49 54 56 52 43 34 27 35 37 37 30 32 30 30 38 29 25 25 16 16 17 18 21 20 13 23 21 20 21 23 23 12 13 16 12 15 13 8 11 6
39 39 44 48 51 55 56 51 46 33 33 37 35 33 31 34 30 38 30 31 30 26 30 27 24 22 20 22 24 26 23 19 20 25 27 21 21 19 18 14 11 11 7
38 38 41 44 46 48 51 52 49 45 30 31 28 31 36 35 36 40 39 36 35 39 33 28 20 21 18 19 22 29 29 27 26 19 24 27 29 30 28 19 14 12 10
37 33 36 43 47 46 41 44 50 46 40 30 36 41 42 33 30 37 39 41 38 36 35 34 31 25 15 13 20 26 30 31 27 21 18 20 26 33 31 28 23 21 20
44 38 36 36 43 43 38 38 40 45 39 31 33 35 39 38 32 30 34 34 51 47 40 37 34 31 26 19 18 15 23 31 34 33 33 33 35 32 32 30 31 33 32
36 30 30 39 42 41 35 35 36 39 36 34 34 33 26 27 23 20 23 30 33 48 41 37 34 31 30 24 21 22 20 18 25 35 37 34 32 31 32 34 38 38 33
Wind_Direction_500mb
219 212 214 221 227 285 320 338 335 341 346 354 344 341 336 342 339 320 325 334 335 341 351 348 346 342 342 336 322 315 299 276 269 282 279 272 265 253 249 253 251 249 244
216 205 209 221 247 288 319 331 328 334 344 352 349 341 334 328 326 321 317 316 326 336 345 349 344 344 342 336 323 301 307 301 289 278 281 301 284 261 250 251 255 249 232
210 209 208 228 255 285 316 319 319 324 343 349 352 347 334 326 321 312 314 319 323 329 341 348 342 342 339 341 329 312 292 301 300 289 269 273 273 306 238 235 258 240 231
220 215 218 234 261 282 301 310 309 325 342 349 350 353 354 349 336 327 329 325 324 329 337 341 342 343 351 359 355 336 299 292 297 289 271 265 260 276 288 244 249 231 220
226 218 222 239 258 266 287 295 302 328 338 340 349 350 350 349 351 340 330 329 329 333 331 336 342 353 357 359 -0 3 341 308 296 289 275 264 261 256 253 270 267 231 214
222 242 246 255 252 268 275 286 306 321 321 330 339 346 345 341 343 344 333 325 328 342 329 332 339 356 358 8 5 354 350 344 308 291 279 276 266 265 250 246 245 251 205
235 250 230 242 248 256 275 289 296 323 311 322 331 333 328 328 331 335 328 325 334 335 332 335 338 346 359 2 7 360 3 1 359 324 301 271 257 247 261 238 218 179 151
256 234 235 244 243 254 282 308 315 319 304 288 320 328 328 326 317 316 321 334 334 330 329 337 343 354 353 355 5 8 21 31 12 3 0 358 269 245 241 255 208 177 143
216 224 236 249 243 263 292 304 303 306 284 291 319 325 327 336 336 321 316 323 318 322 326 337 357 355 356 11 19 19 26 11 14 37 26 58 37 259 231 91 118 135 140
239 242 243 233 256 276 281 293 291 294 271 293 323 332 340 352 23 16 358 351 355 5 340 337 356 17 17 15 15 20 28 27 24 30 55 51 58 49 69 132 142 142 142
244 245 241 246 264 269 276 275 289 294 265 293 315 325 351 15 20 13 27 27 26 17 330 308 342 12 11 21 15 6 18 19 30 27 47 32 85 75 76 100 101 138 141
258 266 261 255 263 263 266 269 288 286 255 282 304 306 330 327 338 352 354 12 16 1 351 273 309 326 357 8 20 19 356 10 2 43 51 51 67 81 76 87 103 107 121
326 302 260 269 269 269 269 266 276 280 247 263 290 283 304 324 323 322 333 342 354 360 357 7 340 320 311 1 15 21 38 43 62 55 55 59 47 62 64 93 112 116 104
317 308 291 274 280 273 267 262 271 271 250 263 273 275 288 293 309 306 313 319 334 330 332 348 347 353 104 57 33 60 49 66 78 74 65 65 68 73 78 84 106 122 120
354 324 313 306 304 287 279 262 266 271 269 263 278 275 276 287 289 294 315 305 323 309 310 333 4 57 157 220 35 68 49 68 83 74 64 64 62 66 84 85 101 116 128
353 342 319 302 280 296 297 267 268 275 272 262 270 280 271 284 272 300 293 304 306 317 257 315 341 11 232 265 308 353 3 56 77 84 71 73 67 63 65 69 88 133 152
348 343 345 337 308 292 285 271 269 279 264 278 267 278 259 271 285 280 289 328 296 303 268 287 283 329 359 314 292 184 5 9 36 11 28 35 27 25 22 31 61 89 124
358 349 345 338 331 324 283 287 275 263 268 271 275 272 263 264 288 267 278 315 334 296 267 244 276 293 324 341 280 286 280 283 306 288 306 40 16 2 341 308 276 240 231
357 359 353 353 347 331 319 284 283 272 266 271 268 269 265 253 255 272 287 295 306 327 251 262 265 268 259 271 290 265 255 243 279 287 284 287 306 338 353 317 271 261 251
345 344 347 349 351 344 331 313 301 268 257 259 275 276 263 263 259 258 275 285 297 299 300 273 273 274 271 262 260 272 249 240 255 283 298 244 232 295 346 335 301 275 259
336 335 340 349 351 353 347 334 317 280 263 285 270 272 271 260 259 243 255 267 274 286 297 292 285 287 291 274 259 255 250 250 258 267 267 232 233 283 321 334 319 311 264
344 347 344 349 352 356 357 357 353 317 280 277 260 263 271 267 269 254 258 261 263 270 280 293 285 290 284 263 248 244 242 247 265 256 251 240 253 267 303 321 303 309 217
348 349 349 349 354 356 1 1 359 0 321 289 286 269 267 263 255 256 256 257 258 268 268 284 277 273 302 250 246 238 240 247 262 270 247 250 250 258 273 283 277 274 257
337 338 349 353 351 352 350 354 358 355 349 350 306 265 266 277 261 262 258 256 265 263 265 268 272 274 283 270 265 260 247 243 247 250 247 257 265 264 264 262 255 256 265
325 320 333 340 342 342 345 339 348 355 357 349 335 316 277 317 276 261 256 255 259 265 260 259 262 273 267 271 274 272 261 256 253 253 260 270 285 273 262 261 256 259 266
329 330 322 327 334 336 330 330 341 349 354 352 345 346 335 317 316 268 255 253 274 254 256 252 255 263 265 258 272 279 278 258 248 252 263 276 285 275 267 262 256 256 265
Wind_Speed_850mb
39 42 31 21 14 12 14 27 31 39 38 45 24 25 27 27 21 17 23 22 25 27 31 29 33 37 38 37 33 29 27 26 30 35 35 36 39 45 48 51 55 54 56
33 42 32 25 16 16 20 30 36 34 35 36 27 30 31 27 24 20 22 22 22 25 29 35 37 38 40 40 31 28 25 23 17 22 27 22 20 22 33 37 46 47 51
34 37 32 28 23 18 26 34 31 29 36 30 23 27 25 24 23 20 20 20 25 26 29 35 38 38 39 42 31 23 22 21 13 14 16 11 8 11 11 16 24 35 42
32 37 29 32 28 21 28 30 27 27 32 26 22 27 27 31 27 25 27 25 25 29 30 33 35 36 32 38 32 23 19 22 21 20 20 24 29 17 12 7 11 23 35
39 39 33 32 29 28 26 27 24 29 26 22 19 23 26 31 32 28 26 21 23 29 25 28 28 26 30 32 28 28 21 23 24 22 21 21 23 31 38 34 20 13 27
37 32 30 28 31 29 27 26 23 26 20 17 20 26 31 36 37 30 22 22 24 27 21 22 20 20 25 29 30 27 25 23 16 16 19 24 25 19 27 34 26 10 19
26 30 32 38 40 31 26 24 26 24 18 16 20 26 31 34 32 26 27 24 25 26 25 17 17 19 19 25 27 28 25 22 17 16 19 20 20 23 18 23 23 16 25
27 28 36 35 34 29 24 23 28 28 22 15 18 27 34 32 26 21 25 24 27 28 13 16 15 15 19 22 23 27 22 25 21 20 19 9 12 18 21 10 24 23 35
32 40 34 35 36 27 24 23 25 28 21 16 22 25 27 28 18 19 23 23 28 21 11 13 11 16 20 18 18 23 27 16 27 26 20 15 14 9 22 34 25 35 31
35 36 35 38 26 29 23 24 24 22 16 17 19 24 24 15 16 21 18 22 16 9 11 7 10 15 20 16 19 18 23 25 23 45 29 17 18 21 24 21 10 39 40
34 40 38 34 31 29 30 27 22 24 19 17 19 19 18 10 14 17 19 25 25 23 14 11 10 13 20 18 23 12 16 18 22 26 33 33 29 28 26 19 22 29 29
32 31 34 34 37 36 34 27 22 25 18 18 20 14 10 10 13 16 13 13 23 21 26 9 11 10 10 14 18 15 12 8 9 17 20 28 30 32 31 32 34 33 29
10 23 34 37 38 40 39 33 23 22 21 22 18 15 11 19 16 17 16 13 18 21 18 15 13 11 4 7 12 16 22 13 13 14 17 18 14 19 22 22 25 26 27
27 21 30 39 38 44 45 36 26 21 24 28 19 20 15 17 16 19 20 17 17 13 14 20 13 9 9 6 12 13 22 25 24 25 22 19 18 16 16 17 20 20 19
25 27 25 37 39 47 40 40 32 26 26 32 28 21 18 22 20 19 24 17 15 12 8 15 17 6 4 1 4 5 10 17 17 19 20 22 24 23 16 13 13 11 11
45 43 47 44 41 38 39 44 36 28 29 33 33 24 14 15 13 18 20 20 18 14 12 9 10 10 1 5 6 2 5 7 6 9 16 14 13 13 13 13 11 10 9
47 47 47 41 47 37 41 41 48 34 31 29 35 31 20 23 19 17 22 15 19 16 12 8 7 9 6 2 3 4 3 4 6 3 7 7 10 10 9 4 6 4 4
49 48 49 49 46 43 41 48 37 49 43 33 34 29 27 23 17 15 19 17 19 15 12 14 8 8 7 7 7 6 4 6 5 5 7 7 11 13 13 7 3 4 4
40 42 44 47 47 41 41 41 41 39 44 37 36 31 28 27 23 22 18 19 18 18 13 15 18 19 18 15 11 14 12 6 5 12 12 12 9 15 14 6 8 10 11
38 43 47 51 54 50 46 39 37 42 34 34 29 31 30 33 31 27 23 22 23 16 17 14 14 19 22 22 20 18 19 19 14 8 12 8 9 9 14 13 10 8 12
38 41 45 49 54 56 52 43 34 27 35 37 37 30 32 30 30 38 29 25 25 16 16 17 18 21 20 13 23 21 20 21 23 23 12 13 16 12 15 13 8 11 6
39 39 44 48 51 55 56 51 46 33 33 37 35 33 31 34 30 38 30 31 30 26 30 27 24 22 20 22 24 26 23 19 20 25 27 21 21 19 18 14 11 11 7
38 38 41 44 46 48 51 52 49 45 30 31 28 31 36 35 36 40 39 36 35 39 33 28 20 21 18 19 22 29 29 27 26 19 24 27 29 30 28 19 14 12 10
37 33 36 43 47 46 41 44 50 46 40 30 36 41 42 33 30 37 39 41 38 36 35 34 31 25 15 13 20 26 30 31 27 21 18 20 26 33 31 28 23 21 20
44 38 36 36 43 43 38 38 40 45 39 31 33 35 39 38 32 30 34 34 51 47 40 37 34 31 26 19 18 15 23 31 34 33 33 33 35 32 32 30 31 33 32
36 30 30 39 42 41 35 35 36 39 36 34 34 33 26 27 23 20 23 30 33 48 41 37 34 31 30 24 21 22 20 18 25 35 37 34 32 31 32 34 38 38 33
Wind_Direction_850mb
219 212 214 221 227 285 320 338 335 341 346 354 344 341 336 342 339 320 325 334 335 341 351 348 346 342 342 336 322 315 299 276 269 282 279 272 265 253 249 253 251 249 244
216 205 209 221 247 288 319 331 328 334 344 352 349 341 334 328 326 321 317 316 326 336 345 349 344 344 342 336 323 301 307 301 289 278 281 301 284 261 250 251 255 249 232
210 209 208 228 255 285 316 319 319 324 343 349 352 347 334 326 321 312 314 319 323 329 341 348 342 342 339 341 329 312 292 301 300 289 269 273 273 306 238 235 258 240 231
220 215 218 234 261 282 301 310 309 325 342 349 350 353 354 349 336 327 329 325 324 329 337 341 342 343 351 359 355 336 299 292 297 289 271 265 260 276 288 244 249 231 220
226 218 222 239 258 266 287 295 302 328 338 340 349 350 350 349 351 340 330 329 329 333 331 336 342 353 357 359 -0 3 341 308 296 289 275 264 261 256 253 270 267 231 214
222 242 246 255 252 268 275 286 306 321 321 330 339 346 345 341 343 344 333 325 328 342 329 332 339 356 358 8 5 354 350 344 308 291 279 276 266 265 250 246 245 251 205
235 250 230 242 248 256 275 289 296 323 311 322 331 333 328 328 331 335 328 325 334 335 332 335 338 346 359 2 7 360 3 1 359 324 301 271 257 247 261 238 218 179 151
256 234 235 244 243 254 282 308 315 319 304 288 320 328 328 326 317 316 321 334 334 330 329 337 343 354 353 355 5 8 21 31 12 3 0 358 269 245 241 255 208 177 143
216 224 236 249 243 263 292 304 303 306 284 291 319 325 327 336 336 321 316 323 318 322 326 337 357 355 356 11 19 19 26 11 14 37 26 58 37 259 231 91 118 135 140
239 242 243 233 256 276 281 293 291 294 271 293 323 332 340 352 23 16 358 351 355 5 340 337 356 17 17 15 15 20 28 27 24 30 55 51 58 49 69 132 142 142 142
244 245 241 246 264 269 276 275 289 294 265 293 315 325 351 15 20 13 27 27 26 17 330 308 342 12 11 21 15 6 18 19 30 27 47 32 85 75 76 100 101 138 141
258 266 261 255 263 263 266 269 288 286 255 282 304 306 330 327 338 352 354 12 16 1 351 273 309 326 357 8 20 19 356 10 2 43 51 51 67 81 76 87 103 107 121
326 302 260 269 269 269 269 266 276 280 247 263 290 283 304 324 323 322 333 342 354 360 357 7 340 320 311 1 15 21 38 43 62 55 55 59 47 62 64 93 112 116 104
317 308 291 274 280 273 267 262 271 271 250 263 273 275 288 293 309 306 313 319 334 330 332 348 347 353 104 57 33 60 49 66 78 74 65 65 68 73 78 84 106 122 120
354 324 313 306 304 287 279 262 266 271 269 263 278 275 276 287 289 294 315 305 323 309 310 333 4 57 157 220 35 68 49 68 83 74 64 64 62 66 84 85 101 116 128
353 342 319 302 280 296 297 267 268 275 272 262 270 280 271 284 272 300 293 304 306 317 257 315 341 11 232 265 308 353 3 56 77 84 71 73 67 63 65 69 88 133 152
348 343 345 337 308 292 285 271 269 279 264 278 267 278 259 271 285 280 289 328 296 303 268 287 283 329 359 314 292 184 5 9 36 11 28 35 27 25 22 31 61 89 124
358 349 345 338 331 324 283 287 275 263 268 271 275 272 263 264 288 267 278 315 334 296 267 244 276 293 324 341 280 286 280 283 306 288 306 40 16 2 341 308 276 240 231
357 359 353 353 347 331 319 284 283 272 266 271 268 269 265 253 255 272 287 295 306 327 251 262 265 268 259 271 290 265 255 243 279 287 284 287 306 338 353 317 271 261 251
345 344 347 349 351 344 331 313 301 268 257 259 275 276 263 263 259 258 275 285 297 299 300 273 273 274 271 262 260 272 249 240 255 283 298 244 232 295 346 335 301 275 259
336 335 340 349 351 353 347 334 317 280 263 285 270 272 271 260 259 243 255 267 274 286 297 292 285 287 291 274 259 255 250 250 258 267 267 232 233 283 321 334 319 311 264
344 347 344 349 352 356 357 357 353 317 280 277 260 263 271 267 269 254 258 261 263 270 280 293 285 290 284 263 248 244 242 247 265 256 251 240 253 267 303 321 303 309 217
348 349 349 349 354 356 1 1 359 0 321 289 286 269 267 263 255 256 256 257 258 268 268 284 277 273 302 250 246 238 240 247 262 270 247 250 250 258 273 283 277 274 257
337 338 349 353 351 352 350 354 358 355 349 350 306 265 266 277 261 262 258 256 265 263 265 268 272 274 283 270 265 260 247 243 247 250 247 257 265 264 264 262 255 256 265
325 320 333 340 342 342 345 339 348 355 357 349 335 316 277 317 276 261 256 255 259 265 260 259 262 273 267 271 274 272 261 256 253 253 260 270 285 273 262 261 256 259 266
329 330 322 327 334 336 330 330 341 349 354 352 345 346 335 317 316 268 255 253 274 254 256 252 255 263 265 258 272 279 278 258 248 252 263 276 285 275 267 262 256 256 265